Location: Eboldshausen
(51.7766°N, 10.0050°E)
Time: 17:44:32
(UTC+00:00)

ATLAS 2AS CENTAUR R/B - Pass Details

Date: 15 November 2025
Orbit: 1047 x 1163 km, 63.7° (Epoch: 09 December)

Event Time Altitude Azimuth Distance (km) Brightness Sun altitude
Rises 19:45:41 0° 315° (NW) 3,848 6.4 -39.1°
Reaches altitude 10° 19:48:21 10° 312° (NW) 2,881 5.6 -39.5°
Enters shadow 19:52:28 38° 297° (WNW) 1,546 3.8 -40.1°
